When you browse on this site, cookies collect data to enhance your experience and personalize the content and advertising you see.
Visit our Privacy Policy to learn more. By continuing to use the site, you agree to this use of cookies and data.

Hourly Weather Orlovo

Today, 10 August, Monday

Time Temperature Precipitation Wind Pressure Humidity
00:00 +16°C° 0 mm 2 mps 747 mmHg 88%
01:00 +16°C° 0 mm 2 mps 747 mmHg 89%
02:00 +15°C° 0 mm 2 mps 747 mmHg 90%
03:00 +15°C° 0 mm 2 mps 747 mmHg 91%
04:00 +15°C° 0 mm 2 mps 747 mmHg 92%
05:00 +15°C° 0 mm 2 mps 747 mmHg 93%
06:00 +17°C° 0 mm 2 mps 748 mmHg 87%
07:00 +18°C° 0 mm 2 mps 748 mmHg 81%
08:00 +20°C° 0 mm 2 mps 748 mmHg 76%
09:00 +21°C° 0 mm 2 mps 748 mmHg 70%
10:00 +22°C° 0 mm 3 mps 748 mmHg 64%
11:00 +24°C° 0 mm 3 mps 748 mmHg 58%
12:00 +24°C° 0 mm 3 mps 748 mmHg 56%
13:00 +25°C° 0 mm 2 mps 747 mmHg 54%
14:00 +25°C° 0 mm 2 mps 747 mmHg 51%
15:00 +25°C° 0 mm 2 mps 747 mmHg 54%
16:00 +24°C° 0 mm 2 mps 747 mmHg 58%
17:00 +24°C° 0 mm 1 mps 747 mmHg 61%
18:00 +22°C° 0 mm 1 mps 747 mmHg 65%
19:00 +21°C° 0 mm 1 mps 747 mmHg 68%
20:00 +17°C° 0 mm 0 mps 747 mmHg 72%
21:00 +16°C° 0 mm 0 mps 747 mmHg 73%
22:00 +18°C° 0 mm 1 mps 746 mmHg 74%
23:00 +18°C° 0 mm 1 mps 746 mmHg 75%

Tomorrow, 11 August, Tuesday

Time Temperature Precipitation Wind Pressure Humidity
00:00 +16°C° 0 mm 1 mps 746 mmHg 76%
01:00 +16°C° 0 mm 1 mps 746 mmHg 77%
02:00 +16°C° 0 mm 2 mps 746 mmHg 78%
03:00 +16°C° 0 mm 2 mps 746 mmHg 80%
04:00 +15°C° 0 mm 2 mps 746 mmHg 82%
05:00 +15°C° 0 mm 2 mps 745 mmHg 84%
06:00 +17°C° 0 mm 2 mps 745 mmHg 81%
07:00 +19°C° 0 mm 3 mps 745 mmHg 78%
08:00 +20°C° 0 mm 3 mps 745 mmHg 75%
09:00 +21°C° 0 mm 3 mps 745 mmHg 74%
10:00 +22°C° 0 mm 3 mps 745 mmHg 72%
11:00 +22°C° 0 mm 3 mps 745 mmHg 71%
12:00 +22°C° 0.2 mm 4 mps 745 mmHg 68%
13:00 +22°C° 0.2 mm 5 mps 745 mmHg 65%
14:00 +22°C° 0.2 mm 5 mps 745 mmHg 62%
15:00 +21°C° 0 mm 5 mps 745 mmHg 65%
16:00 +20°C° 0 mm 5 mps 745 mmHg 68%
17:00 +19°C° 0 mm 5 mps 745 mmHg 70%
18:00 +17°C° 0 mm 4 mps 745 mmHg 75%
19:00 +14°C° 0 mm 3 mps 745 mmHg 79%
20:00 +13°C° 0 mm 2 mps 746 mmHg 83%
21:00 +12°C° 0 mm 3 mps 746 mmHg 85%
22:00 +12°C° 0 mm 3 mps 746 mmHg 88%
23:00 +11°C° 0 mm 3 mps 746 mmHg 90%

Day after tomorrow, 12 August, Wednesday

Time Temperature Precipitation Wind Pressure Humidity
00:00 +11°C° 0 mm 3 mps 746 mmHg 92%
01:00 +10°C° 0 mm 3 mps 746 mmHg 94%
02:00 +10°C° 0 mm 3 mps 746 mmHg 95%
03:00 +10°C° 0 mm 3 mps 746 mmHg 96%
04:00 +10°C° 0 mm 3 mps 746 mmHg 96%
05:00 +9°C° 0 mm 3 mps 746 mmHg 96%
06:00 +11°C° 0 mm 4 mps 746 mmHg 93%
07:00 +12°C° 0 mm 4 mps 746 mmHg 89%
08:00 +13°C° 0 mm 5 mps 746 mmHg 85%
09:00 +14°C° 0 mm 5 mps 746 mmHg 82%
10:00 +14°C° 0 mm 5 mps 746 mmHg 78%
11:00 +15°C° 0 mm 5 mps 746 mmHg 74%
12:00 +16°C° 0.1 mm 5 mps 746 mmHg 72%
13:00 +16°C° 0.1 mm 5 mps 746 mmHg 70%
14:00 +17°C° 0.1 mm 6 mps 746 mmHg 68%
15:00 +17°C° 0.1 mm 5 mps 746 mmHg 70%
16:00 +16°C° 0.1 mm 5 mps 746 mmHg 72%
17:00 +16°C° 0.1 mm 5 mps 746 mmHg 74%
18:00 +15°C° 0 mm 5 mps 746 mmHg 79%
19:00 +13°C° 0 mm 4 mps 747 mmHg 84%
20:00 +12°C° 0 mm 3 mps 747 mmHg 89%
21:00 +12°C° 0 mm 4 mps 747 mmHg 88%
22:00 +12°C° 0 mm 4 mps 747 mmHg 88%
23:00 +12°C° 0 mm 4 mps 747 mmHg 87%

13 August, Thursday

Time Temperature Precipitation Wind Pressure Humidity
00:00 +12°C° 0 mm 4 mps 747 mmHg 90%
01:00 +11°C° 0 mm 3 mps 747 mmHg 92%
02:00 +10°C° 0 mm 3 mps 747 mmHg 95%
03:00 +10°C° 0 mm 3 mps 747 mmHg 93%
04:00 +11°C° 0 mm 3 mps 747 mmHg 90%
05:00 +11°C° 0 mm 3 mps 747 mmHg 88%
06:00 +12°C° 0 mm 4 mps 747 mmHg 84%
07:00 +13°C° 0 mm 4 mps 747 mmHg 80%
08:00 +13°C° 0 mm 4 mps 747 mmHg 77%
09:00 +14°C° 0 mm 4 mps 747 mmHg 70%
10:00 +15°C° 0 mm 5 mps 747 mmHg 64%
11:00 +16°C° 0 mm 5 mps 747 mmHg 57%
12:00 +16°C° 0.1 mm 5 mps 747 mmHg 58%
13:00 +16°C° 0.1 mm 5 mps 747 mmHg 59%
14:00 +15°C° 0.1 mm 4 mps 747 mmHg 60%
15:00 +15°C° 0.1 mm 4 mps 747 mmHg 63%
16:00 +15°C° 0.1 mm 4 mps 747 mmHg 65%
17:00 +14°C° 0.1 mm 4 mps 747 mmHg 68%
18:00 +13°C° 0 mm 3 mps 747 mmHg 72%
19:00 +12°C° 0 mm 3 mps 748 mmHg 76%
20:00 +12°C° 0 mm 2 mps 748 mmHg 79%
21:00 +12°C° 0 mm 2 mps 748 mmHg 82%
22:00 +10°C° 0 mm 2 mps 748 mmHg 85%
23:00 +9°C° 0 mm 2 mps 748 mmHg 88%

14 August, Friday

Time Temperature Precipitation Wind Pressure Humidity
00:00 +9°C° 0 mm 2 mps 748 mmHg 89%
01:00 +8°C° 0 mm 2 mps 748 mmHg 91%
02:00 +8°C° 0 mm 2 mps 748 mmHg 92%
03:00 +8°C° 0 mm 2 mps 748 mmHg 92%
04:00 +8°C° 0 mm 3 mps 748 mmHg 92%
05:00 +8°C° 0 mm 3 mps 748 mmHg 92%
06:00 +9°C° 0 mm 3 mps 748 mmHg 85%
07:00 +11°C° 0 mm 4 mps 748 mmHg 78%
08:00 +13°C° 0 mm 4 mps 748 mmHg 71%
09:00 +14°C° 0 mm 4 mps 748 mmHg 66%
10:00 +15°C° 0 mm 4 mps 748 mmHg 61%
11:00 +17°C° 0 mm 4 mps 748 mmHg 55%
12:00 +17°C° 0 mm 4 mps 748 mmHg 56%
13:00 +18°C° 0 mm 4 mps 748 mmHg 56%
14:00 +18°C° 0 mm 4 mps 748 mmHg 57%
15:00 +18°C° 0 mm 3 mps 747 mmHg 61%
16:00 +17°C° 0 mm 3 mps 747 mmHg 65%
17:00 +17°C° 0 mm 3 mps 747 mmHg 69%
18:00 +16°C° 0 mm 3 mps 747 mmHg 75%
19:00 +14°C° 0 mm 2 mps 748 mmHg 81%
20:00 +13°C° 0 mm 1 mps 748 mmHg 87%
21:00 +12°C° 0 mm 2 mps 748 mmHg 88%
22:00 +12°C° 0 mm 2 mps 748 mmHg 89%
23:00 +10°C° 0 mm 2 mps 748 mmHg 90%

15 August, Saturday

Time Temperature Precipitation Wind Pressure Humidity
00:00 +10°C° 0 mm 2 mps 748 mmHg 91%
01:00 +10°C° 0 mm 2 mps 747 mmHg 91%
02:00 +10°C° 0 mm 2 mps 747 mmHg 91%
03:00 +10°C° 0 mm 3 mps 747 mmHg 91%
04:00 +10°C° 0 mm 3 mps 747 mmHg 91%
05:00 +11°C° 0 mm 3 mps 746 mmHg 90%
06:00 +11°C° 0.2 mm 4 mps 746 mmHg 90%
07:00 +12°C° 0.2 mm 4 mps 746 mmHg 91%
08:00 +12°C° 0.2 mm 4 mps 745 mmHg 91%
09:00 +13°C° 0.6 mm 4 mps 745 mmHg 92%
10:00 +13°C° 0.6 mm 5 mps 745 mmHg 94%
11:00 +13°C° 0.6 mm 5 mps 745 mmHg 95%
12:00 +14°C° 0.3 mm 5 mps 745 mmHg 94%
13:00 +14°C° 0.3 mm 5 mps 745 mmHg 94%
14:00 +15°C° 0.3 mm 5 mps 745 mmHg 93%
15:00 +15°C° 0.2 mm 5 mps 745 mmHg 93%
16:00 +15°C° 0.2 mm 5 mps 744 mmHg 93%
17:00 +15°C° 0.2 mm 5 mps 744 mmHg 93%
18:00 +15°C° 0.3 mm 5 mps 744 mmHg 94%
19:00 +14°C° 0.3 mm 4 mps 744 mmHg 95%
20:00 +14°C° 0.3 mm 3 mps 744 mmHg 96%
21:00 +14°C° 0.2 mm 3 mps 744 mmHg 96%
22:00 +14°C° 0.2 mm 3 mps 744 mmHg 97%
23:00 +14°C° 0.2 mm 2 mps 744 mmHg 97%
Show more